This is the latest recevied weather packets stored in our database for station/object WX5HOT. If no packets are shown the sender has not sent any weather packets the latest 10 day(s).
| Time | Temp. | Humidity | Pressure | Rain* | Wind** | Luminosity | Snow |
|---|---|---|---|---|---|---|---|
| 1778103186 | 8.33° C | 99% | 1063.5 hPa | 0 mm | - | 113 W/m² | - |
| 1778102884 | 8.33° C | 99% | 1063.7 hPa | 0 mm | - | 100 W/m² | - |
| 1778102580 | 7.78° C | 99% | 1064 hPa | 0 mm | - | 90 W/m² | - |
| 1778102274 | 8.33° C | 99% | 1063.9 hPa | 0 mm | - | 124 W/m² | - |
| 1778101971 | 8.33° C | 99% | 1064 hPa | 0 mm | - | 127 W/m² | - |
| 1778101668 | 7.78° C | 99% | 1064.4 hPa | 0 mm | - | 41 W/m² | - |
| 1778101365 | 7.78° C | 99% | 1064.3 hPa | 0 mm | - | 67 W/m² | - |
| 1778101062 | 7.78° C | 99% | 1064.3 hPa | 0 mm | - | 112 W/m² | - |
| 1778100758 | 8.33° C | 99% | 1064 hPa | 0 mm | - | 148 W/m² | - |
| 1778100455 | 7.78° C | 99% | 1064 hPa | 0 mm | - | 157 W/m² | - |
| 1778100152 | 7.78° C | 99% | 1063.6 hPa | 0 mm | - | 167 W/m² | - |
| 1778099850 | 7.78° C | 99% | 1063.5 hPa | 0 mm | - | 216 W/m² | - |
| 1778099547 | 7.78° C | 99% | 1063.3 hPa | 0 mm | - | 193 W/m² | - |
| 1778099245 | 7.78° C | 99% | 1063.5 hPa | 0 mm | - | 194 W/m² | - |
| 1778098941 | 7.78° C | 99% | 1064 hPa | 0 mm | - | 353 W/m² | - |
| 1778098638 | 7.78° C | 99% | 1064.4 hPa | 0 mm | - | 192 W/m² | - |
| 1778098334 | 7.78° C | 99% | 1064.4 hPa | 0 mm | - | 268 W/m² | - |
| 1778098032 | 7.78° C | 99% | 1063.7 hPa | 0 mm | - | 328 W/m² | - |
| 1778097729 | 7.78° C | 99% | 1063.9 hPa | 0 mm | - | 343 W/m² | - |
| 1778097425 | 7.22° C | 99% | 1064.4 hPa | 0 mm | - | 305 W/m² | - |
| 1778097121 | 7.22° C | 99% | 1064.1 hPa | 0 mm | - | 275 W/m² | - |
| 1778096819 | 7.78° C | 99% | 1063.9 hPa | 0 mm | - | 200 W/m² | - |
| 1778096515 | 7.22° C | 99% | 1063.9 hPa | 0 mm | - | 95 W/m² | - |
| 1778096213 | 7.22° C | 99% | 1064 hPa | 0 mm | - | 205 W/m² | - |
| 1778095910 | 7.22° C | 99% | 1064.1 hPa | 0 mm | - | 204 W/m² | - |
* Rain latest hour (hover to see other rain measurements)
** Current wind speed in m/s (hover to see current wind gust speed)